Location: New Mesquite
(33.1168°N, 96.4336°W)
Time: 22:35:25
(UTC+00:00)

Okean 1 - Pass Details

Date: 10 July 2022
Orbit: 532 x 553 km, 82.5° (Epoch: 15 August)

Event Time Altitude Azimuth Distance (km) Brightness Sun altitude
Rises 08:12:06 0° 9° (N) 2,681 7.9 -29.7°
Reaches altitude 10° 08:14:35 10° 23° (NNE) 1,785 6.8 -29.4°
Enters shadow 08:17:27 24° 70° (ENE) 1,144 5.3 -29.1°
